Location: Burland Observatory
(39.4088°N, 105.4217°W)
Time: 11:10:32
(UTC-07:00)

SR - Pass Details

Date: 14 December 2019
Orbit: 574 x 882 km, 66.7° (Epoch: 26 January)

Event Time Altitude Azimuth Distance (km) Brightness Sun altitude
Rises 16:40:02 0° 336° (NNW) 3,476 ? -1.0°
Reaches altitude 10° 16:42:45 10° 344° (NNW) 2,519 ? -1.5°
Maximum altitude 16:48:13 39° 53° (NE) 1,237 ? -2.4°
Drops below altitude 10° 16:53:22 10° 122° (ESE) 2,374 ? -3.3°
Sets 16:55:51 0° 130° (SE) 3,254 ? -3.7°
